Location: Perryvale
(54.4667°N, 113.3833°W)
Time: 23:26:42
(UTC+00:00)

Vanguard 1 - Pass Details

Date: 22 May 2024
Orbit: 652 x 3825 km, 34.2° (Epoch: 13 June)

Event Time Altitude Azimuth Distance (km) Brightness Sun altitude
Rises 05:40:13 0° 239° (WSW) 5,048 13.7 -11.4°
Reaches altitude 10° 05:43:23 10° 231° (SW) 4,431 13.3 -11.6°
Maximum altitude 05:54:44 35° 171° (S) 3,901 12.6 -12.3°
Drops below altitude 10° 06:12:02 10° 116° (ESE) 6,714 13.9 -13.2°
Sets 06:18:23 0° 110° (ESE) 7,920 14.3 -13.5°
